Regional Weather Roundup
Issued by NWS Charleston, SC

Current Version | Previous Version | Graphics & Text | Print | Product List | Glossary On
Versions: 1 2 3 4 5 6 7 8 9 10 11 12 13 14 15 16 17 18 19 20 21 22 23 24 25 26 27 28 29 30 31 32 33 34 35 36 37 38 39 40 41 42 43 44 45 46 47 48 49 50
000 ASUS42 KCHS 120513 RWRCHS REGIONAL WEATHER ROUNDUP NATIONAL WEATHER SERVICE CHARLESTON SC 1200 AM EST FRI FEB 12 2016 NOTE: "FAIR" INDICATES FEW OR NO CLOUDS BELOW 12,000 FEET WITH NO SIGNIFICANT WEATHER AND/OR OBSTRUCTIONS TO VISIBILITY. NOT ALL STATIONS ARE QUALITY CONTROLLED BY THE NATIONAL WEATHER SERVICE. USE DATA WITH CAUTION...ESPECIALLY DEWPOINT OBSERVATIONS. SCZ027-030-031-034>040-042>050-120600- ...SOUTHEAST SOUTH CAROLINA... CITY SKY/WX TMP DP RH WIND PRES REMARKS N CHARLESTON MOCLDY 44 36 73 E3 30.21F WATERFRONT PRK N/A 47 42 83 E6 30.06F MOUNT PLEASANT CLOUDY 43 37 81 CALM 30.22S JOHNS ISLAND CLOUDY 46 43 87 CALM 30.21F PINOPOLIS N/A 45 34 65 VRB3 30.16R MONCKS CORNER CLOUDY 41 30 65 CALM 30.22F SUMMERVILLE CLOUDY 43 36 75 CALM 30.22F BEAUFORT MCAS MOCLDY 43 39 86 CALM 30.21S BEAUFORT ARPT MOCLDY 46 37 71 E3 30.20S HILTON HEAD IS PTCLDY 46 45 93 E3 30.21F WALTERBORO CLOUDY 43 36 75 CALM 30.21S ALLENDALE CLOUDY 45 37 76 CALM 30.21R ...SOUTHERN MIDLANDS AND PEE DEE... CITY SKY/WX TMP DP RH WIND PRES REMARKS GEORGETOWN CLOUDY 41 36 81 CALM 30.25F KINGSTREE CLOUDY 37 30 75 CALM 30.24F ORANGEBURG CLOUDY 44 31 60 NE3 30.21S BARNWELL CLOUDY 46 36 66 CALM 30.21S AIKEN CLOUDY 37 30 75 CALM 30.23S MANNING CLOUDY 39 30 70 CALM 30.23F COLUMBIA CLOUDY 42 25 50 CALM 30.21F SUMTER CLOUDY 36 25 64 CALM 30.20F FLORENCE CLEAR 33 26 75 E5 30.25F WCI 29 MYRTLE BEACH CLOUDY 39 30 70 CALM 30.28F N MYRTLE BEACH MOCLDY 36 32 85 NE5 30.26F WCI 32 $$ GAZ063-065-086>088-099>101-113>116-118-119-134>141-150-120600- ...SOUTHEAST GEORGIA... CITY SKY/WX TMP DP RH WIND PRES REMARKS SAVANNAH ARPT PTCLDY 43 38 82 E3 30.20S HUNTER AAF CLEAR 43 42 95 CALM 30.17S FORT STEWART PTCLDY 41 39 92 CALM 30.17S STATESBORO PTCLDY 42 37 82 CALM 30.20R SYLVANIA CLEAR 42 38 85 CALM 30.20F CLAXTON FAIR 43 41 94 CALM 30.19S ...CSRA...CENTRAL AND FAR SOUTHEAST GEORGIA... CITY SKY/WX TMP DP RH WIND PRES REMARKS THOMSON CLOUDY 37 35 89 CALM 30.24S AUGUSTA-BUSH CLOUDY 36 32 85 CALM 30.21R AUGUSTA-DANIEL CLOUDY 46 26 45 E3 30.20S SWAINSBORO FAIR 45 34 65 E3 30.19F VIDALIA CLEAR 45 37 76 CALM 30.18S EASTMAN MOCLDY 42 41 96 CALM 30.20S HAZLEHURST CLOUDY 54 51 90 SW5 30.17S ALMA PTCLDY 52 50 93 SW3 30.19S WAYCROSS CLOUDY 56 54 95 SW8 30.20S JESUP FAIR 55 52 88 SW6 30.20S BAXLEY MOCLDY 55 54 94 SW3 30.19R BRUNSWICK CLEAR 52 48 87 SW6 30.21S SAINT SIMONS CLEAR 52 48 86 SW9 30.21R $$ SCZ027-028-034-036>038-045-046-048>050-GAZ119-141-120600- ...LAKE AND SUPPLEMENTAL COASTAL OBSERVATIONS... STATION/POSITION TIME TEMP WIND PRES WAVE SWELL AIR SEA DIR/SP/G HT/PER HT/PER/DIR (UTC) (F) (DEG/KT/KT) (MB) (FT/S) (FT/S/D) WINYAH BAY NOT AVBL LAKE MURRAY 0400 44 90/ 9/ 11 1022.4F ACE BASIN NERRS NOT AVBL FORT PULASKI 0400 50 50 80/ 3/ 4 1022.7S SAPELO ISLAND 0400 50 190/ 5 1022.0S $$ ANZ835-935-AMZ111-154-330-350-352-354-370-450-454-472-120600- ...C-MAN AND BUOY OBSERVATIONS... STATION/POSITION TIME TEMP WIND PRES WAVE SWELL AIR SEA DIR/SP/G HT/PER HT/PER/DIR (UTC) (F) (DEG/KT/KT) (MB) (FT/S) (FT/S/D) BUOY 41004 0450 56 69 60/ 8/ 10 1023.1F 1/ 4 2/ 4 BUOY 41008 0450 55 53 220/ 12/ 14 1022.8R 3/ 5 FOLLY BEACH CMAN 0500 50 80/ 8/ 9 1023.1F CAPERS NEARSHORE 0408 51 70/ 8/ 10 1023.3F FRIPP NEARSHORE 0400 53 100/ 10/ 12 1021.8F STATION/POSITION TIME TEMP WIND PRES WAVE SWELL AIR SEA DIR/SP/G HT/PER HT/PER/DIR (UTC) (F) (DEG/KT/KT) (MB) (FT/S) (FT/S/D) 5E ST. MARYS GA 0421 56 N/A 3/ 5 FRYING PAN BUOY 0400 47 57 60/ 6/ 8 1025.8R BUOY 41025 0450 40 62 350/ 8/ 14 1026.4S 3/ 3 2/ 30/ 7 CAPE LOOKOUT NC NOT AVBL BUOY 41002 0450 57 68 320/ 14/ 17 N/A 7/ 8 5/300/ 8 BUOY 41010 0420 64 72 1025.5F ST AUGUSTINE FL 0500 54 57 230/ 7/ 8 1024.7F $$

USA.gov is the U.S. government's official web portal to all federal, state and local government web resources and services.